Theta_e
312 311 310 311 311 311 311 312 312 312 313 313 313 312 312 312 311 309 309 309 309 308 307 307 306 305 303 302 300 298 298 297 296 288 287 287 288 290 287 286 285 284 283
312 311 311 310 310 310 310 310 310 310 311 311 312 311 312 312 311 308 308 308 307 307 306 306 306 305 303 302 300 298 296 294 293 287 287 287 286 285 286 286 285 284 283
310 310 310 310 310 310 310 309 309 309 309 310 310 310 311 311 310 309 308 307 307 307 307 306 305 303 302 300 300 297 294 292 291 291 285 285 287 288 284 284 285 284 283
309 309 309 310 310 310 309 308 308 308 308 308 308 309 310 310 310 310 308 306 306 305 305 304 304 303 302 301 298 295 292 291 292 289 289 289 286 284 283 284 283 283 283
308 308 308 308 308 307 307 307 306 307 307 307 307 308 308 308 308 307 306 305 304 303 302 302 302 302 301 300 297 293 291 290 288 288 286 283 283 282 283 284 283 283 284
305 305 305 305 305 305 306 306 305 305 305 305 306 306 306 306 306 305 304 302 301 300 299 299 298 297 297 296 295 293 294 289 287 285 284 283 283 283 283 284 284 282 283
301 302 303 303 302 302 303 303 303 304 304 304 304 304 304 304 303 302 300 299 297 296 295 295 294 293 293 292 290 290 288 288 290 287 284 284 284 285 287 285 284 284 284
301 299 299 300 301 300 301 301 302 302 301 301 301 301 301 300 298 297 295 294 293 292 291 291 291 290 290 290 288 286 287 288 286 285 285 289 291 291 289 287 284 285 285
300 299 298 297 297 297 297 298 299 299 299 299 298 297 296 296 294 292 291 291 290 289 288 288 288 288 288 287 287 286 286 285 286 286 289 289 288 288 288 284 284 284 281
297 296 295 295 295 295 295 296 296 296 295 294 294 293 293 292 291 290 289 289 286 285 285 285 286 286 286 286 286 286 285 285 287 289 288 285 286 287 285 284 284 282 281
294 293 293 292 293 293 294 294 293 292 292 291 290 289 289 288 288 288 288 286 285 284 284 284 285 285 286 286 286 286 286 286 288 288 286 287 286 285 285 284 284 283 282
292 291 290 291 291 291 291 291 290 290 289 287 286 285 285 286 286 288 287 286 284 284 284 284 285 286 286 286 286 286 286 288 287 286 287 286 286 285 284 283 283 282 281
289 289 289 288 289 289 289 289 288 287 287 285 284 284 284 284 287 287 286 285 285 284 284 284 285 286 287 287 286 286 287 287 286 285 284 285 285 284 283 282 281 280 279
287 287 287 287 287 287 286 286 286 285 284 283 283 284 284 285 286 287 286 285 285 284 284 284 285 286 287 287 287 287 287 286 286 285 285 285 283 282 281 281 279 277 276
286 286 286 286 286 285 284 284 284 284 285 284 284 284 284 284 285 286 286 285 285 284 284 284 285 285 285 285 285 285 285 285 285 285 284 283 282 281 279 278 277 275 274
284 283 285 285 285 284 285 285 286 286 285 285 285 285 284 285 285 285 285 285 285 285 285 285 285 285 284 284 284 284 284 284 284 283 282 281 280 278 277 275 275 274 272
284 284 284 284 285 285 285 285 285 285 286 286 286 286 286 285 285 285 286 286 286 286 285 285 285 284 284 284 283 283 282 282 281 280 279 279 278 277 275 274 273 271 270
285 285 285 284 285 285 284 283 283 282 281 281 283 284 284 285 286 286 286 286 285 284 283 281 281 280 280 280 280 280 279 279 278 277 277 276 275 274 273 272 271 270 269
285 286 285 285 284 284 283 282 282 281 280 279 280 281 280 283 284 284 284 283 281 280 280 280 279 278 277 277 277 277 276 276 275 275 274 273 272 272 271 270 269 268 266
286 286 285 284 284 283 282 281 279 279 278 278 278 279 279 280 280 278 278 278 278 277 277 276 276 275 275 274 274 273 273 273 272 272 271 271 270 269 268 267 266 266 265
283 284 284 283 282 282 281 279 278 277 276 275 275 276 277 278 275 276 275 275 275 275 274 274 273 272 272 271 271 271 270 270 269 269 268 267 266 266 266 265 264 264 264
281 282 282 281 281 281 280 279 277 276 274 274 274 272 275 275 274 273 273 272 272 271 271 270 269 268 267 267 267 267 266 266 266 265 265 265 264 264 264 264 263 263 262
278 279 279 279 278 278 278 277 276 274 273 272 272 272 272 271 270 269 268 267 267 267 266 266 266 266 266 266 266 265 265 265 264 264 264 263 263 263 263 263 262 262 262
275 277 277 275 275 275 274 273 272 272 271 271 270 269 268 267 267 266 266 265 265 265 265 265 265 265 265 265 264 264 264 264 263 263 263 263 262 262 262 262 261 261 261
274 274 273 273 273 272 271 270 270 269 268 268 267 267 266 265 265 265 265 264 264 264 264 264 264 264 264 264 264 263 263 263 262 262 262 262 261 261 261 261 261 261 260
271 271 271 271 270 269 268 267 267 267 267 266 266 265 264 264 264 263 264 264 264 264 263 263 263 263 263 263 263 263 263 263 262 262 262 261 261 261 260 260 260 260 259
Wind_Speed
14 17 21 22 23 27 32 36 38 37 38 37 35 34 35 34 34 34 37 37 41 42 42 43 43 44 37 39 38 37 38 33 20 12 22 26 23 31 39 39 35 31 30
18 20 23 22 23 26 30 34 36 36 35 36 36 35 35 34 34 34 36 38 40 40 42 41 42 41 39 36 35 36 34 35 27 13 21 23 24 30 37 38 34 31 29
23 23 25 26 28 30 32 32 32 32 32 32 33 35 36 35 35 35 35 36 39 42 42 42 41 38 39 35 39 34 34 32 33 20 11 19 22 24 29 31 31 29 26
22 25 27 29 32 34 34 31 30 30 30 31 32 33 35 35 34 35 35 34 36 38 40 40 40 39 39 38 37 34 31 31 26 22 17 16 18 18 27 27 26 27 24
21 22 25 29 32 34 34 31 28 28 29 28 29 30 31 32 32 32 33 33 33 34 35 35 35 37 36 35 34 31 30 26 24 21 13 12 18 15 24 25 24 22 22
25 27 28 29 29 29 29 29 27 26 26 26 28 28 29 30 29 29 29 30 31 32 32 31 30 29 29 28 27 26 27 29 24 18 17 19 20 24 25 24 23 13 7
27 27 28 29 28 26 25 25 25 24 22 24 24 25 27 26 26 25 25 26 26 27 26 25 25 24 23 20 19 19 20 24 26 25 22 24 25 28 27 22 21 18 11
34 31 26 26 27 25 23 22 21 21 21 21 21 21 21 20 20 20 19 19 20 19 19 20 20 20 19 18 17 17 20 18 18 20 26 22 24 19 23 21 19 16 14
35 33 29 26 26 22 21 20 18 19 18 16 15 14 15 14 15 14 13 16 16 15 14 14 14 14 13 15 19 21 19 19 17 20 18 14 14 8 11 15 15 14 8
33 31 27 24 22 20 17 15 14 13 12 11 10 11 11 11 10 11 12 12 10 9 9 9 10 10 14 17 22 25 22 23 23 15 10 10 7 6 12 15 18 17 10
29 26 24 21 20 18 14 11 10 9 8 8 8 8 8 8 8 7 12 8 9 10 10 10 10 11 14 19 18 23 27 27 24 14 13 7 9 14 16 18 19 22 18
26 23 19 17 15 15 13 9 7 8 7 6 6 5 5 5 9 11 8 5 7 9 10 10 10 11 14 17 16 19 17 14 13 11 6 10 14 16 17 19 20 19 18
22 20 18 14 11 10 12 10 10 10 10 9 7 6 6 7 9 13 6 7 6 7 6 7 10 11 14 15 16 16 13 9 9 6 10 14 14 12 11 12 13 14 13
19 17 14 12 9 8 10 10 9 10 10 9 9 9 9 8 9 15 7 7 8 7 8 9 10 12 13 14 12 11 8 8 9 13 16 17 14 13 14 15 16 16 13
17 16 13 11 10 9 9 8 8 7 9 12 11 12 12 10 10 15 10 6 8 9 10 10 9 10 11 9 8 10 10 12 14 16 16 15 13 13 14 15 15 14 9
16 15 15 12 10 10 9 7 7 9 8 8 11 10 8 10 12 9 8 8 9 11 11 9 8 7 6 8 9 11 13 15 15 13 11 11 11 12 13 13 10 9 9
19 17 15 13 12 10 9 9 16 20 17 14 10 10 11 11 10 10 10 9 6 10 8 6 3 3 3 5 7 10 9 9 9 9 7 6 7 10 12 11 10 10 10
18 15 16 15 13 14 11 14 16 14 15 20 18 18 17 17 13 11 11 10 11 10 10 9 8 5 4 5 5 5 6 5 5 6 6 6 8 9 11 11 12 11 11
21 19 19 19 17 16 15 14 15 18 19 18 17 16 14 11 13 13 11 12 13 11 9 6 3 2 2 2 3 4 5 6 7 8 8 9 9 10 11 11 11 12 11
24 22 22 23 20 20 17 17 16 18 17 14 13 13 13 14 18 18 17 15 13 11 8 6 3 1 1 2 3 4 5 6 7 7 8 8 9 10 10 11 11 12 12
22 23 23 22 22 21 19 19 17 18 16 14 13 11 9 14 15 15 13 11 8 6 5 3 1 1 2 3 4 4 5 6 7 8 9 8 9 9 10 10 10 9 9
23 24 24 23 21 21 21 20 19 18 18 17 16 12 11 11 11 11 10 8 7 5 3 2 1 0 2 3 4 5 6 7 7 7 8 8 9 10 10 10 9 9 9
22 25 24 22 22 22 21 19 20 20 18 14 12 12 11 11 10 9 8 7 5 4 1 0 1 2 3 4 5 6 7 7 8 8 8 8 9 9 10 11 11 12 12
21 25 25 23 23 22 21 19 18 18 16 15 13 11 10 9 8 7 6 4 3 2 1 1 2 3 4 5 6 7 8 9 9 9 9 9 10 10 12 12 13 13 12
20 24 25 24 23 22 21 18 17 16 15 13 11 9 8 7 6 5 4 3 2 1 2 3 4 4 5 6 7 8 9 10 11 10 11 12 12 12 13 14 14 14 13
19 20 21 21 20 20 19 18 15 12 11 10 9 8 7 6 5 4 3 2 3 4 5 5 6 7 8 8 9 10 11 11 11 12 12 13 15 15 15 16 16 16 16
Wind_Direction
285 266 259 260 263 263 263 264 264 265 264 261 260 256 252 251 252 248 245 242 242 237 236 236 237 238 232 237 233 229 227 225 233 218 219 214 215 224 227 227 228 229 233
280 273 266 267 270 271 272 269 266 265 265 264 262 260 255 252 252 251 244 240 242 238 239 240 242 243 238 236 235 230 226 224 216 184 198 209 217 217 226 224 222 229 235
291 284 275 272 273 275 279 279 271 264 262 261 260 259 256 253 252 252 251 248 246 245 245 243 241 237 239 232 238 229 228 223 212 213 180 197 205 225 220 222 223 230 237
304 292 283 279 279 280 285 285 276 266 262 259 256 255 256 258 257 255 254 252 251 252 249 248 249 245 245 245 240 231 220 212 208 198 192 203 212 212 208 207 217 227 237
328 314 299 295 291 288 284 283 280 269 263 261 257 252 250 251 255 255 253 253 255 257 257 257 257 258 257 254 242 234 225 200 190 186 183 180 191 173 192 207 218 230 243
323 316 312 305 300 293 286 283 282 276 268 260 253 252 250 248 250 254 258 258 259 260 262 263 261 259 257 252 244 241 241 196 179 174 174 189 188 193 195 205 216 215 237
322 319 317 314 309 302 293 287 285 279 269 261 258 255 252 252 252 253 258 261 262 260 259 261 260 256 251 242 232 228 208 200 213 184 181 186 191 202 212 211 210 215 218
322 322 319 313 310 309 301 291 282 276 270 267 264 258 253 253 258 263 262 259 257 257 259 260 258 254 244 232 211 188 185 190 181 193 197 209 224 224 222 221 215 232 260
316 315 316 314 308 305 298 291 281 272 268 263 260 255 253 258 262 257 248 244 244 246 248 247 244 241 230 215 197 190 186 177 183 201 211 205 199 206 223 208 227 241 234
311 308 309 307 300 295 291 284 274 266 262 258 246 244 248 250 249 242 226 233 230 224 217 218 222 218 200 197 199 182 168 182 194 201 204 201 197 232 229 240 245 228 210
303 301 301 300 296 288 277 269 262 256 246 238 238 239 233 219 200 203 212 207 205 194 190 195 206 199 193 189 195 187 186 194 205 205 208 219 236 240 242 237 239 239 230
296 294 291 291 287 280 265 240 227 221 212 211 208 200 199 185 170 171 193 185 183 197 197 195 199 190 185 182 190 195 196 202 190 199 227 243 240 245 255 253 250 247 248
290 285 286 280 273 264 261 235 185 193 196 180 184 173 155 158 155 168 144 134 140 158 176 175 169 169 172 186 204 200 186 207 224 247 264 268 265 277 261 244 238 235 231
277 273 267 257 250 239 227 222 191 175 179 170 173 159 146 145 156 169 148 131 132 124 133 153 160 170 171 180 185 189 211 239 257 270 278 283 271 257 241 237 219 209 209
269 262 246 237 226 213 212 208 169 175 185 174 176 170 159 156 152 173 166 157 138 125 134 141 154 179 199 221 246 269 273 270 271 269 265 262 252 240 230 220 213 205 211
261 252 245 228 206 187 184 167 113 123 130 122 120 128 130 152 145 163 162 139 130 128 127 134 145 171 200 223 238 257 268 272 266 265 263 255 242 232 210 200 214 224 229
253 250 239 227 189 199 166 113 104 95 96 94 92 91 107 124 140 153 148 143 140 153 136 150 157 206 236 267 284 281 280 278 274 263 251 242 234 223 215 212 220 225 227
248 241 217 204 191 174 162 141 123 103 91 80 89 93 97 110 127 139 147 144 115 101 94 90 83 64 26 353 330 311 305 291 266 258 262 256 248 240 224 227 229 235 242
231 219 209 200 188 179 165 149 135 129 121 116 110 104 92 115 128 125 131 120 111 103 99 96 66 346 340 316 299 292 280 268 264 265 265 259 248 239 239 243 245 244 238
220 211 201 194 184 172 156 147 144 138 128 117 111 114 117 122 105 98 98 103 105 104 100 95 94 81 335 292 286 284 280 280 279 275 269 262 255 253 256 256 248 242 239
204 189 187 182 172 159 153 152 151 142 131 114 102 103 117 115 108 105 104 102 102 102 104 107 145 245 280 285 288 296 293 283 277 276 275 273 268 264 264 259 249 245 250
189 174 169 164 156 156 155 156 155 150 141 131 121 110 115 113 114 112 113 114 114 117 133 155 178 299 306 310 309 305 298 296 298 294 290 283 272 264 262 260 257 252 253
180 167 158 155 157 150 149 154 158 157 150 139 131 128 128 122 120 119 120 121 124 126 123 55 349 324 312 309 304 298 296 292 287 284 278 270 269 267 266 263 262 257 256
170 156 152 152 148 147 150 152 155 156 148 141 141 140 135 132 134 132 135 137 139 150 188 271 284 296 295 294 296 292 288 283 281 281 276 270 271 270 264 263 262 264 263
156 151 151 146 146 147 148 150 152 152 144 145 150 150 148 150 148 156 165 164 180 244 287 288 287 294 298 299 292 283 277 275 275 271 272 273 270 264 262 263 264 266 266
142 140 137 142 145 147 152 154 155 152 154 159 162 163 163 167 175 184 197 238 262 261 263 272 282 290 291 288 284 279 277 277 275 276 275 269 265 262 260 261 262 261 263